Terug naar catalogus

ATLAS 5 CENTAUR DEB

LostHEO
NORAD 44985·DEBRIS·🇺🇸 United States

Gelanceerd Oct 17, 2018 vanaf Cape Canaveral Space Force Station

Loading…

Volgende Passages (komende 24 uur)

TLE

VerouderdSource: Space-Track

Epoch: Jul 22, 2026, 05:43 UTC

1 44985U 18079BR  26203.23882821 -.00000096  00000-0  00000-0 0  9998
2 44985  13.6193 349.2788 4742939  51.2300 342.4577  1.96762190 37772

Volg ATLAS 5 CENTAUR DEB in realtime met AllMySat

Download on the App Store